{"data":{"norad_id":58724,"epoch":"2026-05-24T23:06:01.677888Z","epoch_age_seconds":68371,"freshness":"FRESH","line1":"1 58724U 24002V   26144.96251942  .00000791  00000+0  34548-4 0  9993","line2":"2 58724  53.1590 235.6151 0000813  97.2310 262.8785 15.34394418133689","mean_motion":15.34394418,"eccentricity":8.13e-5,"inclination_deg":53.159,"raan_deg":235.6151,"arg_perigee_deg":97.231,"mean_anomaly_deg":262.8785,"bstar":3.4548e-5,"rev_number":13368,"period_min":93.848099491718,"perigee_km":462.16366947739,"apogee_km":463.27599279813,"semimajor_km":6840.8568311378,"source":"CELESTRAK","updated_at":"2026-05-25T13:38:18.718709Z"}}